TIME,DELAY(SENSOR),PRES,OXYGEN,RAWTEMP,T(OPTODE),TCPHASE,FLUOR,BETA(BETA700),BETA(BETA412),BETA(BETA440),CDOM,C(CSC),ED(ED412.40),ED(ED444.00),ED(ED489.70),ED(ED554.30),LU(LU411.80),LU(LU443.40),LU(LU489.60),LU(LU554.10),COMP,TILTX,TILTY,CHECK
1364529291,5808,876.3300170898438000,45.4484481811523440,656.9617919921875000,4.7279429435729980,54.1547203063964840,53,100,88,79,81,14881,2147751844,2147424557,2148009545,2147876370,2147637659,2147064420,2148263899,2147195410,3242,4,13,7019
1364532887,5809,926.2700195312500000,48.3314094543457000,664.9641723632812000,4.4644069671630860,53.8400497436523440,53,99,83,82,80,14883,2147754770,2147423478,2148011035,2147876790,2147643922,2147061668,2148260406,2147196690,3595,4,13,2148
1364536487,5808,931.9699707031250000,48.3633499145507800,665.7536010742188000,4.4383702278137210,53.8417510986328100,52,100,86,78,80,14885,2147755227,2147429037,2148011593,2147876726,2147640859,2147056411,2148261056,2147196416,134,4,13,53661
1364540087,5808,966.9899902343750000,48.8639984130859400,667.4608154296875000,4.3820400238037110,53.7966194152832000,53,99,85,79,81,14884,2147755913,2147425600,2148011136,2147872685,2147641417,2147058715,2148261330,2147198098,518,4,13,6629
1364543687,5809,980.4899902343750000,49.1492805480957000,667.7575073242188000,4.3722481727600100,53.7577209472656250,53,98,85,80,80,14881,2147754642,2147426660,2148007113,2147874450,2147642605,2147065362,2148256950,2147196571,3352,4,13,50711
1364547287,5810,973.7100219726562000,48.4520683288574200,667.3640136718750000,4.3852348327636720,53.8561286926269500,53,99,85,80,80,14866,2147757540,2147423643,2148010395,2147875776,2147644288,2147054811,2148260041,2147195373,339,4,13,43391
1364550887,5807,957.1599731445312000,49.1786689758300800,669.4672851562500000,4.3157920837402340,53.7745590209960940,52,99,91,79,80,14885,2147754980,2147426203,2148011190,2147875428,2147641654,2147055122,2148257472,2147198400,461,4,13,7223
1364554487,5807,964.8699951171875000,49.6038703918457000,671.3287963867188000,4.2542920112609860,53.7439002990722660,52,98,84,79,80,14887,2147756013,2147423149,2148011154,2147876617,2147643401,2147060388,2148261449,2147196781,3478,4,13,30829
1364558087,5810,966.4500122070312000,49.6108589172363300,671.8656005859375000,4.2365489006042480,53.7459602355957000,53,102,88,79,80,14872,2147757604,2147426093,2148010550,2147875401,2147638811,2147063881,2148263753,2147198747,3161,4,13,22525
1364561687,5807,990.9099731445312000,50.5104293823242200,674.2987060546875000,4.1560897827148440,53.6520118713378900,52,98,86,79,81,14882,2147754020,2147425554,2148011693,2147874057,2147641481,2147061101,2148264758,2147196909,152,4,13,47048
1364565287,5805,993.5499877929688000,50.4995994567871100,674.3112182617188000,4.1556758880615230,53.6528701782226560,53,97,85,81,80,14882,2147758336,2147427446,2148012525,2147872822,2147644763,2147055168,2148261723,2147199204,3104,4,13,52516
1364568887,5809,1002.1500244140625000,50.5598907470703100,674.2946166992188000,4.1562271118164060,53.6470603942871100,53,99,86,79,80,14879,2147757668,2147422747,2148010642,2147876013,2147641508,2147061988,2148264969,2147198171,283,4,13,47433
1364572487,5809,1004.2500000000000000,49.1245002746582000,673.0656738281250000,4.1968708038330080,53.8279991149902340,53,99,86,78,80,14881,2147755318,2147426322,2148010084,2147874349,2147641682,2147057252,2148261302,2147197632,317,4,13,41169
1364576087,5809,1006.3200073242188000,50.0032501220703100,673.6295166015625000,4.1782279014587400,53.7167282104492200,52,97,86,79,81,14880,2147756370,2147425965,2148011154,2147875940,2147642843,2147055780,2148263643,2147194889,421,4,13,41499
1364579687,5809,993.9400024414062000,50.1854515075683600,674.4210815429688000,4.1520400047302250,53.6992111206054700,52,97,87,78,80,14877,2147758436,2147424475,2148011309,2147872978,2147643190,2147057563,2148265289,2147197851,3592,4,13,52994
1364583287,5810,1001.1199951171875000,49.9709281921386700,674.0725708007812000,4.1635680198669430,53.7277984619140600,52,115,86,78,81,14880,2147752018,2147426276,2148010797,2147875894,2147642194,2147055753,2148261897,2147199140,341,4,13,47414
1364586887,5812,1001.4400024414062000,49.8094291687011700,673.7874755859375000,4.1730017662048340,53.7456512451171900,52,98,85,79,80,14863,2147755218,2147425938,2148011254,2147876681,2147641536,2147061705,2148259776,2147196315,68,4,13,16987
1364590487,5811,1004.1799926757812000,49.4310188293457000,673.8356933593750000,4.1714057922363280,53.7981491088867200,53,97,88,79,80,14878,2147755401,2147424274,2148012562,2147874541,2147642404,2147058962,2148265307,2147197677,3286,4,13,51640
1364594087,5807,1008.9699707031250000,50.4095611572265600,674.0689697265625000,4.1636910438537600,53.6643295288085940,52,99,85,79,79,14876,2147758043,2147426450,2148008822,2147874194,2147643611,2147061878,2148268525,2147195062,839,4,13,61539
1364597687,5803,1008.3900146484375000,49.0736389160156250,672.7307739257812000,4.2079491615295410,53.8340301513671900,53,98,87,79,80,14875,2147754688,2147425755,2148012224,2147876132,2147639826,2147059574,2148265408,2147197174,3593,4,13,30006
1364601287,5810,1004.2899780273438000,49.0659599304199200,673.5460815429688000,4.1809830665588380,53.8447685241699200,53,97,86,79,81,14879,2147755017,2147424301,2148011629,2147874084,2147642477,2147060644,2148262601,2147200722,408,4,13,17808
1364604887,5802,1005.4899902343750000,49.3992805480957000,674.2926025390625000,4.1562919616699220,53.8089408874511700,53,97,88,77,80,14878,2147754203,2147426468,2148013833,2147873645,2147640219,2147057014,2148260827,2147197238,192,4,13,49092
1364608487,5806,1003.5100097656250000,49.3006591796875000,673.9953002929688000,4.1661281585693360,53.8194007873535160,52,98,86,79,81,14881,2147754825,2147424978,2148008832,2147873252,2147643309,2147054226,2148263744,2147199990,227,4,13,48938
1364612087,5810,1000.5999755859375000,49.8317298889160160,675.9511718750000000,4.1014060974121090,53.7710609436035160,52,100,84,80,80,14877,2147756178,2147426148,2148011163,2147875072,2147641097,2147061504,2148261394,2147195785,36,4,13,39186
1364615687,5808,1001.0300292968750000,50.0005302429199200,676.2108154296875000,4.0928120613098145,53.7447090148925800,52,99,85,80,81,14878,2147757138,2147421467,2148010944,2147877440,2147640932,2147054509,2148266925,2147193993,177,4,13,29590
1364619287,5810,1008.7199707031250000,50.0805206298828100,673.9645996093750000,4.1671428680419920,53.7106285095214840,53,106,87,78,80,14877,2147755346,2147425462,2148008731,2147876754,2147641453,2147056100,2148260315,2147194358,3037,4,13,28611
1364622887,5809,1014.4099731445312000,49.8771514892578100,673.5947265625000000,4.1793789863586430,53.7303199768066400,53,99,86,79,81,14875,2147753197,2147422628,2148010212,2147874093,2147641170,2147054262,2148265764,2147200356,2859,4,13,49138
1364626487,5806,1010.8900146484375000,50.0094604492187500,672.4561157226562000,4.2170310020446780,53.7009315490722660,53,97,89,79,80,14877,2147753920,2147424420,2148009837,2147876425,2147638482,2147053796,2148260992,2147199305,158,4,13,16987
1364630087,5809,1013.1199951171875000,49.6898117065429700,673.4583129882812000,4.1838870048522950,53.7562789916992200,53,98,86,79,81,14878,2147756105,2147425792,2148011017,2147876260,2147638957,2147053430,2148259035,2147195382,3389,4,13,20480
1364633687,5808,1019.4400024414062000,49.8663711547851560,672.4497070312500000,4.2172408103942870,53.7201805114746100,53,97,86,79,80,14876,2147755748,2147427785,2148011739,2147881261,2147639606,2147056246,2148259529,2147195684,3319,4,13,11654
1364637287,5808,1021.4199829101562000,49.2625503540039060,670.7647094726562000,4.2729320526123050,53.7822303771972660,53,98,83,79,81,14876,2147757430,2147428278,2148011136,2147875236,2147637814,2147061138,2148260626,2147198674,3116,4,13,22809
1364640887,5810,1003.3499755859375000,49.5145912170410160,672.6337890625000000,4.2111530303955080,53.7675895690918000,53,98,89,78,81,14876,2147753060,2147424539,2148010121,2147874642,2147638089,2147056137,2148263149,2147197065,203,4,13,34654
1364644487,5811,1010.2600097656250000,49.5846290588378900,673.8610229492188000,4.1705698966979980,53.7745399475097660,53,97,87,78,80,14876,2147753270,2147423808,2148012288,2147872841,2147639232,2147059785,2148265188,2147193243,127,4,13,35041
1364648087,5808,1004.6199951171875000,50.0818290710449200,673.9788818359375000,4.1666698455810550,53.7101707458496100,52,99,86,78,80,14877,2147754953,2147424923,2148010340,2147875355,2147640320,2147053558,2148259510,2147193874,3465,4,13,6488
1364651687,5808,1006.7899780273438000,50.0804214477539060,674.8099975585938000,4.1391739845275880,53.7216491699218750,52,101,87,78,80,14873,2147754898,2147424667,2148010313,2147874166,2147638646,2147059163,2148262491,2147196032,3041,4,13,58435
1364655287,5809,1002.4099731445312000,50.4397506713867200,675.8936767578125000,4.1033082008361820,53.6853904724121100,52,99,87,79,81,14875,2147756388,2147424768,2148011904,2147875830,2147639250,2147061001,2148261860,2147194880,397,4,13,64189
1364658887,5808,1000.5700073242188000,50.0207214355468750,676.3513183593750000,4.0881609916687010,53.7486381530761700,52,98,87,80,80,14878,2147752859,2147425645,2148008036,2147876315,2147638939,2147052653,2148264868,2147192566,70,4,13,17037
1364662487,5808,1010.5900268554688000,50.4504814147949200,674.7971801757812000,4.1395969390869140,53.6688003540039060,52,101,88,79,80,14873,2147758674,2147429833,2148013202,2147879433,2147641398,2147060864,2148259373,2147197129,3532,4,13,24425
1364666087,5807,1013.7399902343750000,50.3435287475585940,673.9378051757812000,4.1680297851562500,53.6749114990234400,52,97,90,80,81,14875,2147754185,2147422518,2148012480,2147878372,2147639360,2147064411,2148260827,2147194596,3513,4,13,31274
1364669687,5808,1012.6099853515625000,49.9153785705566400,673.3914794921875000,4.1861000061035160,53.7200584411621100,52,101,88,80,79,14874,2147754624,2147424969,2148013988,2147874907,2147642459,2147059117,2148260187,2147196032,316,4,13,24260
1364673287,5805,1011.5599975585938000,49.7954216003418000,673.2332763671875000,4.1913280487060550,53.7424888610839840,52,98,87,79,79,14864,2147757330,2147422893,2148010834,2147874806,2147641133,2147057984,2148265417,2147196598,118,4,13,23083
1364674256,5810,1007.9199829101562000,49.3754882812500000,673.3519287109375000,4.1874070167541500,53.7961311340332000,51,104,87,79,81,14871,2147754605,2147424219,2148011053,2147873526,2147644900,2147055908,2148264192,2147196425,3546,4,13,57540
